User: anonymous   Login
Location: Kirtland Hills
(41.6239°N, 81.3071°W)
Time: 15:16:41
(UTC+00:00)
Language:

H-2A R/B - Orbit

View from above orbital plane
View from above orbital plane
View from above satellite
View from above satellite

Ground track
Ground track

The orbit data is extracted from the following two-line orbital elements,

1 28932U 06002B   21016.76000671  .00000208  00000-0  25428-4 0  9994
2 28932  98.3311  24.9582 0088126 344.6474 188.5218 14.92414235812951
Epoch (UTC): 16 January 2021 18:14:24
Eccentricity: 0.0088126
inclination: 98.3311°
perigee height: 529 km
apogee height: 652 km
right ascension of ascending node: 24.9582°
argument of perigee: 344.6474°
revolutions per day: 14.92414235
mean anomaly at epoch: 188.5218°
orbit number at epoch: 81295

The dashed part of the orbit path shows where the satellite is in the earth's shadow,  

DLR